Regional Weather Roundup
Issued by NWS Kansas City/Pleasant Hill, MO

Home | Current Version | Previous Version | Graphics & Text | Print | Product List | Glossary Off
Versions: 1 2 3 4 5 6 7 8 9 10 11 12 13 14 15 16 17 18 19 20 21 22 23 24 25 26 27 28 29 30 31 32 33 34 35 36 37 38 39 40 41 42 43 44 45 46 47 48 49 50

000
ASUS43 KEAX 050711
RWREAX

WEATHER ROUNDUP FOR EASTERN KANSAS AND NORTHWEST MISSOURI
NATIONAL WEATHER SERVICE KANSAS CITY/PLEASANT HILL MO
200 AM CDT SUN JUL 05 2015

KSZ040-057-103>105-MOZ028-029-037-043-050800-
...KANSAS CITY METROPOLITAN AREA...

CITY           SKY/WX    TMP DP  RH WIND       PRES   REMARKS
K.C. INTL      CLEAR     68  64  87 S9        30.00F FOG
K.C. DOWNTOWN  CLEAR     74  64  71 SE6       30.00S
LEES SUMMIT    CLEAR     70  64  81 VRB3      30.02S HAZE
OLATHE - IXD   CLEAR     70  65  84 SE7       30.01F
OLATHE - OJC   CLEAR     68  64  87 SE5       30.01S
LAWRENCE       CLEAR     66  64  93 E6        29.99F FOG

$$

MOZ001>008-011>017-020>025-030>033-038>040-044>046-053-054-050800-
...NORTHERN AND CENTRAL MISSOURI...

CITY           SKY/WX    TMP DP  RH WIND       PRES   REMARKS
ST. JOSEPH     CLEAR     69  64  84 CALM      30.00S
MOSBY          SUNNY     64  64 100 CALM      30.01F FOG
HARRISONVILLE  CLEAR     68  66  94 CALM      30.03F FOG
WARRENSBURG    CLEAR     64  63  94 CALM      30.01F
WHITEMAN AFB   CLEAR     68  64  88 CALM      30.01S
CLINTON        CLEAR     70  68  94 CALM      30.01F FOG
SEDALIA        CLEAR     69  65  86 SE5       30.04R
WARSAW         FAIR      68  68 100 CALM      30.02F FOG
CHILLICOTHE      N/A     66  64  93 CALM      30.03S
KIRKSVILLE     CLEAR     62  60  93 S3        30.05R FOG

$$

MOZ041-047>049-056>058-063>065-088>090-097-050800-
...EASTERN AND SOUTHERN MISSOURI...

CITY           SKY/WX    TMP DP  RH WIND       PRES   REMARKS
ST. LOUIS INTL CLEAR     70  62  76 CALM      30.05S HAZE
SPIRIT OF STL  CLEAR     65  64  97 CALM      30.04R FOG
COLUMBIA       CLEAR     69  65  86 SE6       30.04S
JEFFERSON CITY CLEAR     69  65  86 SE3       30.03R
MEXICO         CLEAR    N/A N/A N/A SE5       30.05R HAZE
ROLLA          PTCLDY    68  66  93 SE7       30.05R FOG
LEBANON        PTCLDY    70  66  88 SE3       30.05S
OSAGE BEACH    CLEAR     70  64  83 CALM      30.03S
SPRINGFIELD    PTCLDY    72  68  87 SE6       30.03R
BRANSON        LGT RAIN  70  68  94 CALM      30.05R
JOPLIN         PTCLDY    72  68  87 SE5       30.00S
WEST PLAINS    CLOUDY    71  68  90 CALM      30.07S FOG
MALDEN         FOG       72  70  94 CALM      30.04S VSB 1/2

$$

IAZ060-094-KSZ022-034>040-054-083-096-NEZ052-066-093-050800-
...KANSAS...SOUTHEAST NEBRASKA AND IOWA...

CITY           SKY/WX    TMP DP  RH WIND       PRES   REMARKS
TOPEKA         CLEAR     70  65  84 E5        29.98F HAZE
MANHATTAN      MOCLDY    73  66  78 CALM      29.96S
EMPORIA        CLEAR     70  66  87 SE8       29.98S
CHANUTE        CLEAR     71  67  87 E6        29.99S
WICHITA        PTCLDY    76  65  68 SE9       29.96S
OMAHA          PTCLDY    70  62  76 S9        29.95F
LINCOLN        MOCLDY    71  64  78 S10       29.94F
FALLS CITY     FAIR      67  64  90 SE7       29.97F
LAMONI         CLEAR     67  62  84 S7        30.01F
DES MOINES     CLEAR     67  60  78 S7        29.99F

$$



USA.gov is the U.S. government's official web portal to all federal, state and local government web resources and services.